TimeEST,TemperatureF,Dew PointF,Humidity,Sea Level PressureIn,VisibilityMPH,Wind Direction,Wind SpeedMPH,Gust SpeedMPH,PrecipitationIn,Events,Conditions,WindDirDegrees,DateUTC
12:53 AM,37.0,28.0,70,30.24,10.0,Calm,Calm,-,N/A,,Clear,0,2012-11-22 05:53:00
1:53 AM,36.0,28.0,73,30.24,10.0,Calm,Calm,-,N/A,,Clear,0,2012-11-22 06:53:00
2:53 AM,35.1,28.0,76,30.24,10.0,Calm,Calm,-,N/A,,Clear,0,2012-11-22 07:53:00
3:53 AM,32.0,27.0,82,30.24,10.0,Calm,Calm,-,N/A,,Clear,0,2012-11-22 08:53:00
4:53 AM,30.9,27.0,85,30.25,10.0,Calm,Calm,-,N/A,,Clear,0,2012-11-22 09:53:00
5:53 AM,33.1,27.0,78,30.27,10.0,Calm,Calm,-,N/A,,Clear,0,2012-11-22 10:53:00
6:53 AM,28.0,26.1,92,30.28,8.0,Calm,Calm,-,N/A,,Clear,0,2012-11-22 11:53:00
7:53 AM,33.1,28.0,82,30.29,10.0,Calm,Calm,-,N/A,,Clear,0,2012-11-22 12:53:00
8:53 AM,36.0,28.9,76,30.28,10.0,Calm,Calm,-,N/A,,Clear,0,2012-11-22 13:53:00
9:53 AM,44.1,30.9,60,30.28,10.0,Calm,Calm,-,N/A,,Clear,0,2012-11-22 14:53:00
10:53 AM,50.0,28.9,44,30.26,10.0,Calm,Calm,-,N/A,,Clear,0,2012-11-22 15:53:00
11:53 AM,55.9,28.0,34,30.23,10.0,West,3.5,-,N/A,,Clear,260,2012-11-22 16:53:00
12:53 PM,59.0,24.1,26,30.21,10.0,Variable,3.5,-,N/A,,Clear,0,2012-11-22 17:53:00
1:53 PM,60.1,25.0,26,30.19,10.0,Calm,Calm,-,N/A,,Clear,0,2012-11-22 18:53:00
2:53 PM,61.0,25.0,25,30.17,10.0,SW,4.6,-,N/A,,Clear,230,2012-11-22 19:53:00
3:53 PM,61.0,26.1,26,30.16,10.0,Calm,Calm,-,N/A,,Clear,0,2012-11-22 20:53:00
4:53 PM,59.0,26.1,28,30.16,10.0,Calm,Calm,-,N/A,,Clear,0,2012-11-22 21:53:00
5:53 PM,51.1,27.0,39,30.16,10.0,Calm,Calm,-,N/A,,Clear,0,2012-11-22 22:53:00
6:53 PM,46.9,28.0,48,30.17,10.0,South,3.5,-,N/A,,Clear,190,2012-11-22 23:53:00
7:53 PM,44.1,28.9,55,30.15,10.0,South,3.5,-,N/A,,Clear,180,2012-11-23 00:53:00
8:53 PM,41.0,28.0,60,30.14,10.0,South,3.5,-,N/A,,Clear,190,2012-11-23 01:53:00
9:53 PM,41.0,28.0,60,30.12,10.0,Calm,Calm,-,N/A,,Clear,0,2012-11-23 02:53:00
10:53 PM,39.9,27.0,60,30.09,10.0,South,3.5,-,N/A,,Clear,190,2012-11-23 03:53:00
11:53 PM,45.0,27.0,49,30.06,10.0,Calm,Calm,-,N/A,,Clear,0,2012-11-23 04:53:00